Find KALPANA-1

NORAD ID: 27525 Int'l Des: 2002-043 Owner: ISRO Country: IN operational
HEOCIRCULAR

当前视图

正在加载3D地球...

About KALPANA-1

KALPANA-1 (NORAD 27525) is a satellite launched Sep 12, 2002 by ISRO of IN. It operates in HEO, CIRCULAR orbit with a mass of 1060.00 kg.

即将过境

Passes for default location (London). Set your location on the main map for personalized predictions.

高度历史

Loading altitude history...

两行轨道根数

1 27525U 02043A 26194.81041220 -.00000204 00000-0 00000+0 0 9996
2 27525 13.1010 32.0704 0006421 142.3814 228.8026 0.98339759 86758
Epoch: Jul 13, 2026 • Age: 19 hours

当前状态

高度 36362.2 km
远地点 / 近地点 N/A
速度 3.05 km/s
星下点 -12.33°S, 174.88°E
发射日期 Sep 12, 2002
运行时间 23.8 years
类型 other

技术详情

分类 Payload
质量 1060.00 kg
干质量 560.00 kg
总质量 1060.00 kg
长度 2.00 m
直径 2.00 m
跨度 5.00 m
形状 Box + Pan
制造商 ISRO
平台类型 I2K
阶段状态 In Orbit
所有者/国家 ISRO/IN

Most Searched